Location: Dunedin
(45.8900°S, 170.5000°E)
Time: 11:56:01
(UTC+12:00)

ISS - Pass Details

Date: 18 April 2024
Orbit: 409 x 414 km, 51.6° (Epoch: 20 May)

Event Time Altitude Azimuth Distance (km) Brightness Sun altitude
Rises 19:21:51 0° 295° (WNW) 2,396 1.3 -15.6°
Reaches altitude 10° 19:23:58 10° 293° (WNW) 1,535 0.1 -16.0°
Maximum altitude 19:27:25 77° 206° (SSW) 451 -3.7 -16.6°
Enters shadow 19:28:39 37° 126° (SE) 692 -3.1 -16.8°
